Time,TemperatureF,DewpointF,PressureIn,WindDirection,WindDirectionDegrees,WindSpeedMPH,WindSpeedGustMPH,Humidity,HourlyPrecipIn,Conditions,Clouds,dailyrainin,SoftwareType,DateUTC
2013-04-03 00:00:00,45.4,22.5,30.27,NNW,342,2.0,2.0,40,0.00,,,0.00,Wunderground v.1.13,2013-04-03 04:00:00,
2013-04-03 00:01:00,45.2,22.3,30.27,NNW,342,2.0,2.0,40,0.00,,,0.00,Wunderground v.1.13,2013-04-03 04:01:00,
2013-04-03 00:02:00,45.2,22.3,30.27,NNW,342,2.0,2.0,40,0.00,,,0.00,Wunderground v.1.13,2013-04-03 04:02:00,
2013-04-03 00:07:00,45.0,22.7,30.27,NNW,342,0.0,1.0,41,0.00,,,0.00,Wunderground v.1.13,2013-04-03 04:07:00,
2013-04-03 00:11:00,44.7,22.4,30.27,NNW,342,0.0,0.0,41,0.00,,,0.00,Wunderground v.1.13,2013-04-03 04:11:00,
2013-04-03 00:17:00,44.4,23.8,30.27,NNW,342,0.0,0.0,44,0.00,,,0.00,Wunderground v.1.13,2013-04-03 04:17:00,
2013-04-03 00:22:00,44.1,24.6,30.27,NNW,342,0.0,0.0,46,0.00,,,0.00,Wunderground v.1.13,2013-04-03 04:22:00,
2013-04-03 00:27:00,43.7,24.2,30.27,NNW,342,0.0,0.0,46,0.00,,,0.00,Wunderground v.1.13,2013-04-03 04:27:00,
2013-04-03 00:33:00,42.9,24.5,30.27,NNW,342,0.0,0.0,48,0.00,,,0.00,Wunderground v.1.13,2013-04-03 04:33:00,
2013-04-03 00:38:00,42.4,24.1,30.27,NNW,342,0.0,0.0,48,0.00,,,0.00,Wunderground v.1.13,2013-04-03 04:38:00,
2013-04-03 00:44:00,41.7,24.9,30.27,NNW,342,0.0,0.0,51,0.00,,,0.00,Wunderground v.1.13,2013-04-03 04:44:00,
2013-04-03 00:49:00,41.1,25.3,30.28,NNW,342,0.0,0.0,53,0.00,,,0.00,Wunderground v.1.13,2013-04-03 04:49:00,
2013-04-03 00:54:00,40.6,24.8,30.28,NNW,342,0.0,0.0,53,0.00,,,0.00,Wunderground v.1.13,2013-04-03 04:54:00,
2013-04-03 00:59:00,40.2,25.7,30.28,NNW,342,0.0,0.0,56,0.00,,,0.00,Wunderground v.1.13,2013-04-03 04:59:00,
2013-04-03 01:04:00,39.8,25.8,30.29,NNW,342,0.0,0.0,57,0.00,,,0.00,Wunderground v.1.13,2013-04-03 05:04:00,
2013-04-03 01:10:00,39.4,25.8,30.29,NNW,342,0.0,0.0,58,0.00,,,0.00,Wunderground v.1.13,2013-04-03 05:10:00,
2013-04-03 01:16:00,39.0,26.3,30.29,NNW,342,0.0,0.0,60,0.00,,,0.00,Wunderground v.1.13,2013-04-03 05:16:00,
2013-04-03 01:21:00,38.7,26.0,30.29,NNW,342,0.0,0.0,60,0.00,,,0.00,Wunderground v.1.13,2013-04-03 05:21:00,
2013-04-03 01:27:00,38.4,26.5,30.29,NNW,342,0.0,0.0,62,0.00,,,0.00,Wunderground v.1.13,2013-04-03 05:27:00,
2013-04-03 01:33:00,38.0,25.7,30.29,NNW,342,0.0,0.0,61,0.00,,,0.00,Wunderground v.1.13,2013-04-03 05:33:00,
2013-04-03 01:38:00,37.8,25.5,30.29,NNW,342,0.0,0.0,61,0.00,,,0.00,Wunderground v.1.13,2013-04-03 05:38:00,
2013-04-03 01:44:00,37.4,25.6,30.29,NNW,342,0.0,0.0,62,0.00,,,0.00,Wunderground v.1.13,2013-04-03 05:44:00,
2013-04-03 01:49:00,37.1,25.3,30.30,NNW,342,0.0,0.0,62,0.00,,,0.00,Wunderground v.1.13,2013-04-03 05:49:00,
2013-04-03 01:55:00,36.8,25.0,30.29,NNW,342,0.0,0.0,62,0.00,,,0.00,Wunderground v.1.13,2013-04-03 05:55:00,
2013-04-03 02:01:00,36.5,25.5,30.29,NNW,342,0.0,0.0,64,0.00,,,0.00,Wunderground v.1.13,2013-04-03 06:01:00,
2013-04-03 02:07:00,36.0,25.4,30.29,NNW,342,0.0,0.0,65,0.00,,,0.00,Wunderground v.1.13,2013-04-03 06:07:00,
2013-04-03 02:12:00,35.5,25.3,30.29,NNW,342,0.0,0.0,66,0.00,,,0.00,Wunderground v.1.13,2013-04-03 06:12:00,
2013-04-03 02:17:00,35.2,25.7,30.29,NNW,342,0.0,0.0,68,0.00,,,0.00,Wunderground v.1.13,2013-04-03 06:17:00,
2013-04-03 02:22:00,34.8,25.7,30.29,NNW,342,0.0,0.0,69,0.00,,,0.00,Wunderground v.1.13,2013-04-03 06:22:00,
2013-04-03 02:27:00,34.5,25.4,30.30,NNW,342,0.0,0.0,69,0.00,,,0.00,Wunderground v.1.13,2013-04-03 06:27:00,
2013-04-03 02:33:00,34.4,25.3,30.29,NNW,342,0.0,0.0,69,0.00,,,0.00,Wunderground v.1.13,2013-04-03 06:33:00,
2013-04-03 02:39:00,34.1,25.3,30.29,NNW,342,0.0,0.0,70,0.00,,,0.00,Wunderground v.1.13,2013-04-03 06:39:00,
2013-04-03 02:45:00,33.5,25.1,30.29,NNW,342,0.0,0.0,71,0.00,,,0.00,Wunderground v.1.13,2013-04-03 06:45:00,
2013-04-03 02:51:00,33.0,25.0,30.29,NNW,342,0.0,0.0,72,0.00,,,0.00,Wunderground v.1.13,2013-04-03 06:51:00,
2013-04-03 02:57:00,32.5,25.1,30.29,NNW,342,0.0,0.0,74,0.00,,,0.00,Wunderground v.1.13,2013-04-03 06:57:00,
2013-04-03 03:02:00,32.2,24.8,30.29,NNW,342,0.0,0.0,74,0.00,,,0.00,Wunderground v.1.13,2013-04-03 07:02:00,
2013-04-03 03:07:00,31.8,24.8,30.29,NNW,342,0.0,0.0,75,0.00,,,0.00,Wunderground v.1.13,2013-04-03 07:07:00,
2013-04-03 03:12:00,31.5,24.5,30.29,NNW,342,0.0,0.0,75,0.00,,,0.00,Wunderground v.1.13,2013-04-03 07:12:00,
2013-04-03 03:17:00,31.3,24.6,30.29,NNW,342,0.0,0.0,76,0.00,,,0.00,Wunderground v.1.13,2013-04-03 07:17:00,
2013-04-03 03:22:00,31.0,24.3,30.29,NNW,342,0.0,0.0,76,0.00,,,0.00,Wunderground v.1.13,2013-04-03 07:22:00,
2013-04-03 03:27:00,30.7,24.3,30.29,NNW,342,0.0,0.0,77,0.00,,,0.00,Wunderground v.1.13,2013-04-03 07:27:00,
2013-04-03 03:32:00,30.6,24.2,30.29,NNW,342,0.0,0.0,77,0.00,,,0.00,Wunderground v.1.13,2013-04-03 07:32:00,
2013-04-03 03:37:00,30.5,24.5,30.28,NNW,342,0.0,0.0,78,0.00,,,0.00,Wunderground v.1.13,2013-04-03 07:37:00,
2013-04-03 03:42:00,30.4,24.4,30.29,NNW,342,0.0,0.0,78,0.00,,,0.00,Wunderground v.1.13,2013-04-03 07:42:00,
2013-04-03 03:47:00,30.1,24.1,30.29,NNW,342,0.0,0.0,78,0.00,,,0.00,Wunderground v.1.13,2013-04-03 07:47:00,
2013-04-03 03:52:00,30.0,24.3,30.29,NNW,342,0.0,0.0,79,0.00,,,0.00,Wunderground v.1.13,2013-04-03 07:52:00,
2013-04-03 03:58:00,29.9,24.5,30.29,NNW,342,0.0,0.0,80,0.00,,,0.00,Wunderground v.1.13,2013-04-03 07:58:00,
2013-04-03 04:03:00,29.8,24.4,30.29,NNW,342,0.0,0.0,80,0.00,,,0.00,Wunderground v.1.13,2013-04-03 08:03:00,
2013-04-03 04:08:00,29.6,24.2,30.29,NNW,342,0.0,0.0,80,0.00,,,0.00,Wunderground v.1.13,2013-04-03 08:08:00,
2013-04-03 04:13:00,29.4,24.3,30.29,NNW,342,0.0,0.0,81,0.00,,,0.00,Wunderground v.1.13,2013-04-03 08:13:00,
2013-04-03 04:19:00,29.2,24.1,30.30,NNW,342,0.0,0.0,81,0.00,,,0.00,Wunderground v.1.13,2013-04-03 08:19:00,
2013-04-03 04:25:00,29.0,23.9,30.30,NNW,342,0.0,0.0,81,0.00,,,0.00,Wunderground v.1.13,2013-04-03 08:25:00,
2013-04-03 04:30:00,28.9,23.8,30.30,NNW,342,0.0,0.0,81,0.00,,,0.00,Wunderground v.1.13,2013-04-03 08:30:00,
2013-04-03 04:35:00,28.9,24.1,30.30,NNW,342,0.0,0.0,82,0.00,,,0.00,Wunderground v.1.13,2013-04-03 08:35:00,
2013-04-03 04:41:00,28.8,24.0,30.30,NNW,342,0.0,0.0,82,0.00,,,0.00,Wunderground v.1.13,2013-04-03 08:41:00,
2013-04-03 04:47:00,28.7,23.9,30.30,NNW,342,0.0,0.0,82,0.00,,,0.00,Wunderground v.1.13,2013-04-03 08:47:00,
2013-04-03 04:52:00,28.6,23.8,30.30,NNW,342,0.0,0.0,82,0.00,,,0.00,Wunderground v.1.13,2013-04-03 08:52:00,
2013-04-03 04:57:00,28.5,23.7,30.30,NNW,342,0.0,0.0,82,0.00,,,0.00,Wunderground v.1.13,2013-04-03 08:57:00,
2013-04-03 05:02:00,28.3,23.8,30.30,NNW,342,0.0,0.0,83,0.00,,,0.00,Wunderground v.1.13,2013-04-03 09:02:00,
2013-04-03 05:07:00,28.1,23.6,30.30,NNW,342,0.0,0.0,83,0.00,,,0.00,Wunderground v.1.13,2013-04-03 09:07:00,
2013-04-03 05:13:00,28.0,23.5,30.29,NNW,342,0.0,0.0,83,0.00,,,0.00,Wunderground v.1.13,2013-04-03 09:13:00,
2013-04-03 05:18:00,27.9,23.4,30.29,NNW,342,0.0,0.0,83,0.00,,,0.00,Wunderground v.1.13,2013-04-03 09:18:00,
2013-04-03 05:23:00,27.8,23.3,30.29,NNW,342,0.0,0.0,83,0.00,,,0.00,Wunderground v.1.13,2013-04-03 09:23:00,
2013-04-03 05:29:00,27.7,23.2,30.29,NNW,342,0.0,0.0,83,0.00,,,0.00,Wunderground v.1.13,2013-04-03 09:29:00,
2013-04-03 05:34:00,27.6,23.1,30.29,NNW,342,0.0,0.0,83,0.00,,,0.00,Wunderground v.1.13,2013-04-03 09:34:00,
2013-04-03 05:40:00,27.5,23.3,30.29,NNW,342,0.0,0.0,84,0.00,,,0.00,Wunderground v.1.13,2013-04-03 09:40:00,
2013-04-03 05:45:00,27.5,23.3,30.28,NNW,342,0.0,0.0,84,0.00,,,0.00,Wunderground v.1.13,2013-04-03 09:45:00,
2013-04-03 05:52:00,27.5,23.3,30.28,NNW,342,0.0,0.0,84,0.00,,,0.00,Wunderground v.1.13,2013-04-03 09:52:00,
2013-04-03 05:57:00,27.5,23.3,30.28,NNW,342,0.0,0.0,84,0.00,,,0.00,Wunderground v.1.13,2013-04-03 09:57:00,
2013-04-03 06:03:00,27.4,23.2,30.29,NNW,342,0.0,0.0,84,0.00,,,0.00,Wunderground v.1.13,2013-04-03 10:03:00,
2013-04-03 06:09:00,27.2,23.0,30.29,NNW,342,0.0,0.0,84,0.00,,,0.00,Wunderground v.1.13,2013-04-03 10:09:00,
2013-04-03 06:15:00,27.1,22.9,30.29,NNW,342,0.0,0.0,84,0.00,,,0.00,Wunderground v.1.13,2013-04-03 10:15:00,
2013-04-03 06:20:00,27.1,22.9,30.30,NNW,342,0.0,0.0,84,0.00,,,0.00,Wunderground v.1.13,2013-04-03 10:20:00,
2013-04-03 06:25:00,26.9,23.0,30.33,NNW,342,0.0,0.0,85,0.00,,,0.00,Wunderground v.1.13,2013-04-03 10:25:00,
2013-04-03 06:31:00,26.8,22.6,30.34,NNW,342,0.0,0.0,84,0.00,,,0.00,Wunderground v.1.13,2013-04-03 10:31:00,
2013-04-03 06:37:00,26.8,22.9,30.32,NNW,342,0.0,0.0,85,0.00,,,0.00,Wunderground v.1.13,2013-04-03 10:37:00,
2013-04-03 06:42:00,26.9,23.0,30.32,NNW,342,0.0,0.0,85,0.00,,,0.00,Wunderground v.1.13,2013-04-03 10:42:00,
2013-04-03 06:48:00,26.9,23.0,30.32,NNW,342,0.0,0.0,85,0.00,,,0.00,Wunderground v.1.13,2013-04-03 10:48:00,
2013-04-03 06:53:00,26.7,22.8,30.32,NNW,342,0.0,0.0,85,0.00,,,0.00,Wunderground v.1.13,2013-04-03 10:53:00,
2013-04-03 06:59:00,26.5,22.6,30.32,NNW,342,0.0,0.0,85,0.00,,,0.00,Wunderground v.1.13,2013-04-03 10:59:00,
2013-04-03 07:04:00,26.4,22.5,30.32,NNW,342,0.0,0.0,85,0.00,,,0.00,Wunderground v.1.13,2013-04-03 11:04:00,
2013-04-03 07:10:00,26.2,22.3,30.32,NNW,342,0.0,0.0,85,0.00,,,0.00,Wunderground v.1.13,2013-04-03 11:10:00,
2013-04-03 07:15:00,26.2,22.6,30.33,NNW,342,0.0,0.0,86,0.00,,,0.00,Wunderground v.1.13,2013-04-03 11:15:00,
2013-04-03 07:20:00,26.2,22.6,30.33,NNW,342,0.0,0.0,86,0.00,,,0.00,Wunderground v.1.13,2013-04-03 11:20:00,
2013-04-03 07:25:00,26.2,22.6,30.33,NNW,342,0.0,0.0,86,0.00,,,0.00,Wunderground v.1.13,2013-04-03 11:25:00,
2013-04-03 07:30:00,26.1,22.5,30.34,NNW,342,0.0,0.0,86,0.00,,,0.00,Wunderground v.1.13,2013-04-03 11:30:00,
2013-04-03 07:36:00,26.2,22.6,30.34,NNW,342,0.0,0.0,86,0.00,,,0.00,Wunderground v.1.13,2013-04-03 11:36:00,
2013-04-03 07:42:00,26.4,23.1,30.34,NNW,342,0.0,0.0,87,0.00,,,0.00,Wunderground v.1.13,2013-04-03 11:42:00,
2013-04-03 07:47:00,26.6,23.3,30.35,NNW,342,0.0,0.0,87,0.00,,,0.00,Wunderground v.1.13,2013-04-03 11:47:00,
2013-04-03 07:53:00,27.2,23.8,30.35,NNW,342,0.0,0.0,87,0.00,,,0.00,Wunderground v.1.13,2013-04-03 11:53:00,
2013-04-03 07:58:00,27.8,24.7,30.36,NNW,342,0.0,0.0,88,0.00,,,0.00,Wunderground v.1.13,2013-04-03 11:58:00,
2013-04-03 08:03:00,28.1,24.7,30.36,NNW,342,0.0,0.0,87,0.00,,,0.00,Wunderground v.1.13,2013-04-03 12:03:00,
2013-04-03 08:08:00,28.3,24.9,30.36,NNW,342,0.0,0.0,87,0.00,,,0.00,Wunderground v.1.13,2013-04-03 12:08:00,
2013-04-03 08:14:00,29.0,25.6,30.36,NNW,342,0.0,0.0,87,0.00,,,0.00,Wunderground v.1.13,2013-04-03 12:14:00,
2013-04-03 08:19:00,29.7,26.3,30.36,NNW,342,0.0,0.0,87,0.00,,,0.00,Wunderground v.1.13,2013-04-03 12:19:00,
2013-04-03 08:24:00,30.4,26.7,30.37,NNW,342,0.0,0.0,86,0.00,,,0.00,Wunderground v.1.13,2013-04-03 12:24:00,
2013-04-03 08:29:00,30.8,26.8,30.36,NNW,342,0.0,0.0,85,0.00,,,0.00,Wunderground v.1.13,2013-04-03 12:29:00,
2013-04-03 08:35:00,32.0,27.7,30.37,North,350,0.0,3.0,84,0.00,,,0.00,Wunderground v.1.13,2013-04-03 12:35:00,
2013-04-03 08:40:00,33.2,27.4,30.36,East,84,2.0,4.0,79,0.00,,,0.00,Wunderground v.1.13,2013-04-03 12:40:00,
2013-04-03 08:46:00,34.9,26.1,30.36,East,92,4.0,4.0,70,0.00,,,0.00,Wunderground v.1.13,2013-04-03 12:46:00,
2013-04-03 08:51:00,36.5,25.5,30.37,East,100,5.0,7.0,64,0.00,,,0.00,Wunderground v.1.13,2013-04-03 12:51:00,
2013-04-03 08:57:00,37.8,25.1,30.36,ESE,103,5.0,6.0,60,0.00,,,0.00,Wunderground v.1.13,2013-04-03 12:57:00,
2013-04-03 09:02:00,38.5,25.0,30.37,East,86,6.0,6.0,58,0.00,,,0.00,Wunderground v.1.13,2013-04-03 13:02:00,
2013-04-03 09:07:00,39.1,24.7,30.37,East,98,6.0,12.0,56,0.00,,,0.00,Wunderground v.1.13,2013-04-03 13:07:00,
2013-04-03 09:13:00,39.7,24.4,30.37,East,97,7.0,8.0,54,0.00,,,0.00,Wunderground v.1.13,2013-04-03 13:13:00,
2013-04-03 09:18:00,40.1,24.3,30.38,East,88,7.0,7.0,53,0.00,,,0.00,Wunderground v.1.13,2013-04-03 13:18:00,
2013-04-03 09:23:00,40.5,23.8,30.38,East,88,7.0,10.0,51,0.00,,,0.00,Wunderground v.1.13,2013-04-03 13:23:00,
2013-04-03 09:28:00,41.1,24.3,30.38,ESE,108,7.0,7.0,51,0.00,,,0.00,Wunderground v.1.13,2013-04-03 13:28:00,
2013-04-03 09:34:00,42.2,24.9,30.38,East,88,4.0,6.0,50,0.00,,,0.00,Wunderground v.1.13,2013-04-03 13:34:00,
2013-04-03 09:39:00,42.8,23.9,30.38,East,95,4.0,8.0,47,0.00,,,0.00,Wunderground v.1.13,2013-04-03 13:39:00,
2013-04-03 09:45:00,42.8,23.4,30.38,East,100,8.0,11.0,46,0.00,,,0.00,Wunderground v.1.13,2013-04-03 13:45:00,
2013-04-03 09:50:00,42.9,22.5,30.38,East,96,9.0,10.0,44,0.00,,,0.00,Wunderground v.1.13,2013-04-03 13:50:00,
2013-04-03 09:55:00,43.1,22.1,30.37,ESE,102,9.0,11.0,43,0.00,,,0.00,Wunderground v.1.13,2013-04-03 13:55:00,
2013-04-03 10:00:00,43.8,23.8,30.37,NNE,26,7.0,8.0,45,0.00,,,0.00,Wunderground v.1.13,2013-04-03 14:00:00,
2013-04-03 10:05:00,44.2,22.5,30.37,ESE,116,5.0,9.0,42,0.00,,,0.00,Wunderground v.1.13,2013-04-03 14:05:00,
2013-04-03 10:10:00,44.3,21.5,30.37,ESE,102,7.0,8.0,40,0.00,,,0.00,Wunderground v.1.13,2013-04-03 14:10:00,
2013-04-03 10:16:00,44.6,22.9,30.37,East,99,7.0,9.0,42,0.00,,,0.00,Wunderground v.1.13,2013-04-03 14:16:00,
2013-04-03 10:21:00,45.3,21.8,30.37,ENE,74,6.0,6.0,39,0.00,,,0.00,Wunderground v.1.13,2013-04-03 14:21:00,
2013-04-03 10:26:00,45.6,22.0,30.37,ESE,102,5.0,10.0,39,0.00,,,0.00,Wunderground v.1.13,2013-04-03 14:26:00,
2013-04-03 10:32:00,45.6,22.0,30.37,East,79,5.0,9.0,39,0.00,,,0.00,Wunderground v.1.13,2013-04-03 14:32:00,
2013-04-03 10:37:00,45.7,21.5,30.37,ENE,78,5.0,9.0,38,0.00,,,0.00,Wunderground v.1.13,2013-04-03 14:37:00,
2013-04-03 10:43:00,45.6,20.8,30.37,East,92,7.0,10.0,37,0.00,,,0.00,Wunderground v.1.13,2013-04-03 14:43:00,
2013-04-03 10:49:00,45.2,20.4,30.37,East,80,8.0,12.0,37,0.00,,,0.00,Wunderground v.1.13,2013-04-03 14:49:00,
2013-04-03 10:54:00,45.5,21.3,30.37,NE,44,8.0,11.0,38,0.00,,,0.00,Wunderground v.1.13,2013-04-03 14:54:00,
2013-04-03 10:59:00,45.8,21.6,30.36,NE,39,7.0,11.0,38,0.00,,,0.00,Wunderground v.1.13,2013-04-03 14:59:00,
2013-04-03 11:04:00,45.6,21.4,30.36,NNE,13,7.0,10.0,38,0.00,,,0.00,Wunderground v.1.13,2013-04-03 15:04:00,
2013-04-03 11:10:00,46.0,21.1,30.36,ESE,106,7.0,8.0,37,0.00,,,0.00,Wunderground v.1.13,2013-04-03 15:10:00,
2013-04-03 11:15:00,46.5,21.6,30.36,NE,39,6.0,6.0,37,0.00,,,0.00,Wunderground v.1.13,2013-04-03 15:15:00,
2013-04-03 11:21:00,46.6,21.0,30.36,ESE,110,6.0,13.0,36,0.00,,,0.00,Wunderground v.1.13,2013-04-03 15:21:00,
2013-04-03 11:27:00,46.4,21.5,30.35,NNE,26,8.0,10.0,37,0.00,,,0.00,Wunderground v.1.13,2013-04-03 15:27:00,
2013-04-03 11:33:00,47.4,21.7,30.35,East,80,5.0,12.0,36,0.00,,,0.00,Wunderground v.1.13,2013-04-03 15:33:00,
2013-04-03 11:39:00,47.3,21.0,30.35,East,98,7.0,14.0,35,0.00,,,0.00,Wunderground v.1.13,2013-04-03 15:39:00,
2013-04-03 11:45:00,47.0,20.7,30.34,ESE,103,10.0,10.0,35,0.00,,,0.00,Wunderground v.1.13,2013-04-03 15:45:00,
2013-04-03 11:50:00,47.3,21.0,30.34,East,97,9.0,9.0,35,0.00,,,0.00,Wunderground v.1.13,2013-04-03 15:50:00,
2013-04-03 11:55:00,47.8,22.1,30.34,ENE,61,7.0,7.0,36,0.00,,,0.00,Wunderground v.1.13,2013-04-03 15:55:00,
2013-04-03 12:01:00,48.1,21.7,30.34,SE,127,6.0,6.0,35,0.00,,,0.00,Wunderground v.1.13,2013-04-03 16:01:00,
2013-04-03 12:06:00,48.5,22.7,30.34,East,90,6.0,11.0,36,0.00,,,0.00,Wunderground v.1.13,2013-04-03 16:06:00,
2013-04-03 12:12:00,48.6,22.1,30.35,East,88,6.0,7.0,35,0.00,,,0.00,Wunderground v.1.13,2013-04-03 16:12:00,
2013-04-03 12:18:00,48.8,23.6,30.35,East,88,5.0,7.0,37,0.00,,,0.00,Wunderground v.1.13,2013-04-03 16:18:00,
2013-04-03 12:23:00,48.8,22.3,30.35,East,93,5.0,9.0,35,0.00,,,0.00,Wunderground v.1.13,2013-04-03 16:23:00,
2013-04-03 12:28:00,49.2,23.4,30.35,ESE,113,5.0,8.0,36,0.00,,,0.00,Wunderground v.1.13,2013-04-03 16:28:00,
2013-04-03 12:34:00,49.4,22.9,30.35,ENE,71,5.0,6.0,35,0.00,,,0.00,Wunderground v.1.13,2013-04-03 16:34:00,
2013-04-03 12:39:00,49.6,23.0,30.35,ENE,74,6.0,12.0,35,0.00,,,0.00,Wunderground v.1.13,2013-04-03 16:39:00,
2013-04-03 12:44:00,49.6,23.7,30.35,ESE,117,6.0,10.0,36,0.00,,,0.00,Wunderground v.1.13,2013-04-03 16:44:00,
2013-04-03 12:50:00,49.6,23.7,30.35,NE,49,5.0,5.0,36,0.00,,,0.00,Wunderground v.1.13,2013-04-03 16:50:00,
2013-04-03 12:55:00,50.1,23.5,30.35,ENE,78,5.0,5.0,35,0.00,,,0.00,Wunderground v.1.13,2013-04-03 16:55:00,
2013-04-03 13:00:00,50.8,24.1,30.35,ESE,109,4.0,6.0,35,0.00,,,0.00,Wunderground v.1.13,2013-04-03 17:00:00,
2013-04-03 13:06:00,51.0,23.6,30.35,East,85,4.0,6.0,34,0.00,,,0.00,Wunderground v.1.13,2013-04-03 17:06:00,
2013-04-03 13:11:00,50.9,22.1,30.35,East,83,4.0,6.0,32,0.00,,,0.00,Wunderground v.1.13,2013-04-03 17:11:00,
2013-04-03 13:17:00,51.6,23.4,30.35,SSE,149,4.0,7.0,33,0.00,,,0.00,Wunderground v.1.13,2013-04-03 17:17:00,
2013-04-03 13:23:00,51.5,23.3,30.35,ESE,103,4.0,5.0,33,0.00,,,0.00,Wunderground v.1.13,2013-04-03 17:23:00,
2013-04-03 13:28:00,51.7,24.2,30.34,East,84,5.0,11.0,34,0.00,,,0.00,Wunderground v.1.13,2013-04-03 17:28:00,
2013-04-03 13:33:00,51.9,22.9,30.34,East,81,4.0,6.0,32,0.00,,,0.00,Wunderground v.1.13,2013-04-03 17:33:00,
2013-04-03 13:39:00,52.1,23.1,30.34,ESE,107,3.0,5.0,32,0.00,,,0.00,Wunderground v.1.13,2013-04-03 17:39:00,
2013-04-03 13:44:00,52.4,22.6,30.34,ENE,69,4.0,7.0,31,0.00,,,0.00,Wunderground v.1.13,2013-04-03 17:44:00,
2013-04-03 13:49:00,52.7,23.6,30.34,ESE,104,4.0,12.0,32,0.00,,,0.00,Wunderground v.1.13,2013-04-03 17:49:00,
2013-04-03 13:55:00,52.9,23.0,30.33,East,85,4.0,4.0,31,0.00,,,0.00,Wunderground v.1.13,2013-04-03 17:55:00,
2013-04-03 14:00:00,53.1,23.2,30.33,East,80,3.0,3.0,31,0.00,,,0.00,Wunderground v.1.13,2013-04-03 18:00:00,
2013-04-03 14:06:00,53.2,24.1,30.33,SSE,147,3.0,12.0,32,0.00,,,0.00,Wunderground v.1.13,2013-04-03 18:06:00,
2013-04-03 14:11:00,53.4,24.2,30.33,East,98,5.0,6.0,32,0.00,,,0.00,Wunderground v.1.13,2013-04-03 18:11:00,
2013-04-03 14:17:00,53.8,24.6,30.33,ESE,115,4.0,5.0,32,0.00,,,0.00,Wunderground v.1.13,2013-04-03 18:17:00,
2013-04-03 14:23:00,54.0,24.0,30.32,East,87,4.0,4.0,31,0.00,,,0.00,Wunderground v.1.13,2013-04-03 18:23:00,
2013-04-03 14:28:00,54.2,24.2,30.33,ENE,73,4.0,6.0,31,0.00,,,0.00,Wunderground v.1.13,2013-04-03 18:28:00,
2013-04-03 14:33:00,54.4,22.8,30.33,East,84,2.0,3.0,29,0.00,,,0.00,Wunderground v.1.13,2013-04-03 18:33:00,
2013-04-03 14:39:00,55.5,26.1,30.32,SW,221,1.0,3.0,32,0.00,,,0.00,Wunderground v.1.13,2013-04-03 18:39:00,
2013-04-03 14:45:00,56.3,25.2,30.33,East,86,2.0,3.0,30,0.00,,,0.00,Wunderground v.1.13,2013-04-03 18:45:00,
2013-04-03 14:51:00,56.0,25.0,30.32,ESE,104,2.0,4.0,30,0.00,,,0.00,Wunderground v.1.13,2013-04-03 18:51:00,
2013-04-03 14:57:00,55.5,24.5,30.32,ENE,73,4.0,5.0,30,0.00,,,0.00,Wunderground v.1.13,2013-04-03 18:57:00,
2013-04-03 15:02:00,54.9,23.2,30.33,NE,35,5.0,7.0,29,0.00,,,0.00,Wunderground v.1.13,2013-04-03 19:02:00,
2013-04-03 15:07:00,54.0,23.2,30.33,NNE,17,5.0,6.0,30,0.00,,,0.00,Wunderground v.1.13,2013-04-03 19:07:00,
2013-04-03 15:13:00,53.9,23.9,30.33,North,5,3.0,5.0,31,0.00,,,0.00,Wunderground v.1.13,2013-04-03 19:13:00,
2013-04-03 15:18:00,54.2,24.2,30.33,NNW,342,3.0,4.0,31,0.00,,,0.00,Wunderground v.1.13,2013-04-03 19:18:00,
2013-04-03 15:23:00,54.7,25.4,30.33,NNW,340,2.0,3.0,32,0.00,,,0.00,Wunderground v.1.13,2013-04-03 19:23:00,
2013-04-03 15:29:00,54.8,24.7,30.32,North,11,3.0,7.0,31,0.00,,,0.00,Wunderground v.1.13,2013-04-03 19:29:00,
2013-04-03 15:34:00,54.6,25.3,30.32,NNW,333,4.0,8.0,32,0.00,,,0.00,Wunderground v.1.13,2013-04-03 19:34:00,
2013-04-03 15:39:00,54.8,24.7,30.32,North,351,3.0,5.0,31,0.00,,,0.00,Wunderground v.1.13,2013-04-03 19:39:00,
2013-04-03 15:44:00,55.0,25.6,30.32,East,100,2.0,4.0,32,0.00,,,0.00,Wunderground v.1.13,2013-04-03 19:44:00,
2013-04-03 15:49:00,54.8,24.7,30.32,NNE,13,3.0,6.0,31,0.00,,,0.00,Wunderground v.1.13,2013-04-03 19:49:00,
2013-04-03 15:55:00,54.9,24.8,30.31,NNE,23,5.0,5.0,31,0.00,,,0.00,Wunderground v.1.13,2013-04-03 19:55:00,
2013-04-03 16:01:00,54.5,25.2,30.31,NNE,32,6.0,10.0,32,0.00,,,0.00,Wunderground v.1.13,2013-04-03 20:01:00,
2013-04-03 16:06:00,54.2,22.6,30.31,NE,41,7.0,9.0,29,0.00,,,0.00,Wunderground v.1.13,2013-04-03 20:06:00,
2013-04-03 16:11:00,54.1,23.3,30.31,East,96,6.0,7.0,30,0.00,,,0.00,Wunderground v.1.13,2013-04-03 20:11:00,
2013-04-03 16:17:00,54.3,24.3,30.31,NE,42,4.0,9.0,31,0.00,,,0.00,Wunderground v.1.13,2013-04-03 20:17:00,
2013-04-03 16:22:00,54.5,25.2,30.31,NE,45,4.0,8.0,32,0.00,,,0.00,Wunderground v.1.13,2013-04-03 20:22:00,
2013-04-03 16:27:00,54.6,25.3,30.31,NNE,19,4.0,7.0,32,0.00,,,0.00,Wunderground v.1.13,2013-04-03 20:27:00,
2013-04-03 16:32:00,54.8,26.2,30.31,NNE,30,4.0,10.0,33,0.00,,,0.00,Wunderground v.1.13,2013-04-03 20:32:00,
2013-04-03 16:38:00,54.6,24.5,30.31,NNE,32,6.0,7.0,31,0.00,,,0.00,Wunderground v.1.13,2013-04-03 20:38:00,
2013-04-03 16:43:00,54.5,24.4,30.32,NNE,31,4.0,6.0,31,0.00,,,0.00,Wunderground v.1.13,2013-04-03 20:43:00,
2013-04-03 16:49:00,54.6,23.7,30.32,NE,44,3.0,7.0,30,0.00,,,0.00,Wunderground v.1.13,2013-04-03 20:49:00,
2013-04-03 16:54:00,54.6,23.7,30.31,NNE,33,4.0,8.0,30,0.00,,,0.00,Wunderground v.1.13,2013-04-03 20:54:00,
2013-04-03 17:00:00,54.7,24.6,30.31,NE,46,5.0,5.0,31,0.00,,,0.00,Wunderground v.1.13,2013-04-03 21:00:00,
2013-04-03 17:05:00,54.8,25.5,30.31,NE,46,4.0,5.0,32,0.00,,,0.00,Wunderground v.1.13,2013-04-03 21:05:00,
2013-04-03 17:11:00,54.9,24.8,30.31,NE,43,5.0,5.0,31,0.00,,,0.00,Wunderground v.1.13,2013-04-03 21:11:00,
2013-04-03 17:17:00,55.0,24.9,30.31,NE,44,4.0,11.0,31,0.00,,,0.00,Wunderground v.1.13,2013-04-03 21:17:00,
2013-04-03 17:22:00,55.0,24.1,30.30,NNE,32,5.0,6.0,30,0.00,,,0.00,Wunderground v.1.13,2013-04-03 21:22:00,
2013-04-03 17:28:00,54.8,23.9,30.30,NNE,30,5.0,6.0,30,0.00,,,0.00,Wunderground v.1.13,2013-04-03 21:28:00,
2013-04-03 17:33:00,54.8,24.7,30.30,ENE,71,5.0,6.0,31,0.00,,,0.00,Wunderground v.1.13,2013-04-03 21:33:00,
2013-04-03 17:38:00,54.8,24.7,30.30,NE,54,5.0,10.0,31,0.00,,,0.00,Wunderground v.1.13,2013-04-03 21:38:00,
2013-04-03 17:43:00,54.9,25.6,30.30,NE,38,4.0,5.0,32,0.00,,,0.00,Wunderground v.1.13,2013-04-03 21:43:00,
2013-04-03 17:49:00,55.0,24.9,30.30,NE,42,2.0,3.0,31,0.00,,,0.00,Wunderground v.1.13,2013-04-03 21:49:00,
2013-04-03 17:54:00,55.1,25.0,30.30,East,99,2.0,6.0,31,0.00,,,0.00,Wunderground v.1.13,2013-04-03 21:54:00,
2013-04-03 18:00:00,55.1,24.2,30.29,East,94,4.0,5.0,30,0.00,,,0.00,Wunderground v.1.13,2013-04-03 22:00:00,
2013-04-03 18:06:00,54.9,25.6,30.29,East,96,4.0,6.0,32,0.00,,,0.00,Wunderground v.1.13,2013-04-03 22:06:00,
2013-04-03 18:11:00,54.9,24.8,30.29,East,101,3.0,4.0,31,0.00,,,0.00,Wunderground v.1.13,2013-04-03 22:11:00,
2013-04-03 18:17:00,54.9,24.8,30.29,East,82,2.0,5.0,31,0.00,,,0.00,Wunderground v.1.13,2013-04-03 22:17:00,
2013-04-03 18:22:00,54.9,24.0,30.29,East,89,2.0,5.0,30,0.00,,,0.00,Wunderground v.1.13,2013-04-03 22:22:00,
2013-04-03 18:28:00,54.9,25.6,30.29,East,86,2.0,4.0,32,0.00,,,0.00,Wunderground v.1.13,2013-04-03 22:28:00,
2013-04-03 18:33:00,54.8,25.5,30.29,East,94,2.0,2.0,32,0.00,,,0.00,Wunderground v.1.13,2013-04-03 22:33:00,
2013-04-03 18:39:00,54.6,26.0,30.29,East,96,1.0,3.0,33,0.00,,,0.00,Wunderground v.1.13,2013-04-03 22:39:00,
2013-04-03 18:44:00,54.5,25.2,30.29,East,92,2.0,3.0,32,0.00,,,0.00,Wunderground v.1.13,2013-04-03 22:44:00,
2013-04-03 18:49:00,54.4,25.1,30.29,East,95,2.0,2.0,32,0.00,,,0.00,Wunderground v.1.13,2013-04-03 22:49:00,
2013-04-03 18:55:00,54.2,24.9,30.28,East,94,3.0,4.0,32,0.00,,,0.00,Wunderground v.1.13,2013-04-03 22:55:00,
2013-04-03 19:01:00,54.0,26.2,30.28,East,96,3.0,3.0,34,0.00,,,0.00,Wunderground v.1.13,2013-04-03 23:01:00,
2013-04-03 19:06:00,53.9,26.1,30.29,East,99,2.0,3.0,34,0.00,,,0.00,Wunderground v.1.13,2013-04-03 23:06:00,
2013-04-03 19:12:00,53.7,26.0,30.28,East,99,2.0,2.0,34,0.00,,,0.00,Wunderground v.1.13,2013-04-03 23:12:00,
2013-04-03 19:17:00,53.6,26.6,30.28,East,99,1.0,1.0,35,0.00,,,0.00,Wunderground v.1.13,2013-04-03 23:17:00,
2013-04-03 19:23:00,53.3,26.3,30.27,East,99,1.0,2.0,35,0.00,,,0.00,Wunderground v.1.13,2013-04-03 23:23:00,
2013-04-03 19:28:00,53.1,26.8,30.27,East,99,0.0,0.0,36,0.00,,,0.00,Wunderground v.1.13,2013-04-03 23:28:00,
2013-04-03 19:33:00,53.0,28.0,30.27,East,99,0.0,0.0,38,0.00,,,0.00,Wunderground v.1.13,2013-04-03 23:33:00,
2013-04-03 19:39:00,52.6,27.0,30.27,East,99,0.0,3.0,37,0.00,,,0.00,Wunderground v.1.13,2013-04-03 23:39:00,
2013-04-03 19:44:00,52.3,27.4,30.28,East,99,0.0,0.0,38,0.00,,,0.00,Wunderground v.1.13,2013-04-03 23:44:00,
2013-04-03 19:49:00,52.1,27.2,30.28,East,99,0.0,0.0,38,0.00,,,0.00,Wunderground v.1.13,2013-04-03 23:49:00,
2013-04-03 19:54:00,51.9,27.1,30.27,East,99,0.0,0.0,38,0.00,,,0.00,Wunderground v.1.13,2013-04-03 23:54:00,
2013-04-03 20:00:00,51.5,27.3,30.28,East,99,0.0,0.0,39,0.00,,,0.00,Wunderground v.1.13,2013-04-04 00:00:00,
2013-04-03 20:05:00,51.2,27.1,30.28,East,99,0.0,0.0,39,0.00,,,0.00,Wunderground v.1.13,2013-04-04 00:05:00,
2013-04-03 20:11:00,50.9,27.4,30.28,East,99,0.0,0.0,40,0.00,,,0.00,Wunderground v.1.13,2013-04-04 00:11:00,
2013-04-03 20:17:00,50.6,27.7,30.28,East,99,0.0,0.0,41,0.00,,,0.00,Wunderground v.1.13,2013-04-04 00:17:00,
2013-04-03 20:22:00,50.4,28.7,30.28,East,99,0.0,0.0,43,0.00,,,0.00,Wunderground v.1.13,2013-04-04 00:22:00,
2013-04-03 20:27:00,50.0,29.5,30.29,East,99,0.0,0.0,45,0.00,,,0.00,Wunderground v.1.13,2013-04-04 00:27:00,
2013-04-03 20:32:00,49.5,28.5,30.29,East,99,0.0,0.0,44,0.00,,,0.00,Wunderground v.1.13,2013-04-04 00:32:00,
2013-04-03 20:38:00,49.2,28.7,30.28,East,99,0.0,0.0,45,0.00,,,0.00,Wunderground v.1.13,2013-04-04 00:38:00,
2013-04-03 20:43:00,48.9,29.0,30.28,East,99,0.0,0.0,46,0.00,,,0.00,Wunderground v.1.13,2013-04-04 00:43:00,
2013-04-03 20:48:00,48.5,29.7,30.28,East,99,0.0,0.0,48,0.00,,,0.00,Wunderground v.1.13,2013-04-04 00:48:00,
2013-04-03 20:54:00,48.1,29.8,30.28,East,99,0.0,0.0,49,0.00,,,0.00,Wunderground v.1.13,2013-04-04 00:54:00,
2013-04-03 20:59:00,47.7,28.9,30.28,East,99,0.0,0.0,48,0.00,,,0.00,Wunderground v.1.13,2013-04-04 00:59:00,
2013-04-03 21:05:00,47.3,28.6,30.29,East,99,0.0,0.0,48,0.00,,,0.00,Wunderground v.1.13,2013-04-04 01:05:00,
2013-04-03 21:10:00,46.9,28.2,30.29,East,99,0.0,0.0,48,0.00,,,0.00,Wunderground v.1.13,2013-04-04 01:10:00,
2013-04-03 21:16:00,46.7,26.5,30.29,East,88,1.0,4.0,45,0.00,,,0.00,Wunderground v.1.13,2013-04-04 01:16:00,
2013-04-03 21:22:00,47.2,26.4,30.30,East,88,2.0,4.0,44,0.00,,,0.00,Wunderground v.1.13,2013-04-04 01:22:00,
2013-04-03 21:28:00,47.6,26.2,30.30,East,88,2.0,3.0,43,0.00,,,0.00,Wunderground v.1.13,2013-04-04 01:28:00,
2013-04-03 21:33:00,47.9,26.5,30.30,East,88,1.0,2.0,43,0.00,,,0.00,Wunderground v.1.13,2013-04-04 01:33:00,
2013-04-03 21:38:00,48.2,26.2,30.30,East,86,1.0,4.0,42,0.00,,,0.00,Wunderground v.1.13,2013-04-04 01:38:00,
2013-04-03 21:44:00,48.5,26.4,30.31,East,87,2.0,3.0,42,0.00,,,0.00,Wunderground v.1.13,2013-04-04 01:44:00,
2013-04-03 21:50:00,48.6,26.5,30.31,East,87,1.0,1.0,42,0.00,,,0.00,Wunderground v.1.13,2013-04-04 01:50:00,
2013-04-03 21:55:00,48.7,26.6,30.31,East,86,1.0,3.0,42,0.00,,,0.00,Wunderground v.1.13,2013-04-04 01:55:00,
2013-04-03 22:00:00,48.7,26.6,30.31,East,86,1.0,1.0,42,0.00,,,0.00,Wunderground v.1.13,2013-04-04 02:00:00,
2013-04-03 22:06:00,48.7,26.0,30.31,East,88,2.0,3.0,41,0.00,,,0.00,Wunderground v.1.13,2013-04-04 02:06:00,
2013-04-03 22:11:00,48.7,25.4,30.31,East,88,2.0,4.0,40,0.00,,,0.00,Wunderground v.1.13,2013-04-04 02:11:00,
2013-04-03 22:17:00,48.7,25.4,30.31,East,89,3.0,5.0,40,0.00,,,0.00,Wunderground v.1.13,2013-04-04 02:17:00,
2013-04-03 22:23:00,48.8,24.3,30.31,East,88,4.0,7.0,38,0.00,,,0.00,Wunderground v.1.13,2013-04-04 02:23:00,
2013-04-03 22:29:00,48.9,23.1,30.30,ESE,117,5.0,11.0,36,0.00,,,0.00,Wunderground v.1.13,2013-04-04 02:29:00,
2013-04-03 22:34:00,49.0,22.5,30.30,ESE,103,5.0,5.0,35,0.00,,,0.00,Wunderground v.1.13,2013-04-04 02:34:00,
2013-04-03 22:40:00,49.0,22.5,30.30,East,86,5.0,5.0,35,0.00,,,0.00,Wunderground v.1.13,2013-04-04 02:40:00,
2013-04-03 22:46:00,49.0,22.5,30.30,ESE,109,4.0,11.0,35,0.00,,,0.00,Wunderground v.1.13,2013-04-04 02:46:00,
2013-04-03 22:51:00,48.9,22.4,30.30,East,96,5.0,9.0,35,0.00,,,0.00,Wunderground v.1.13,2013-04-04 02:51:00,
2013-04-03 22:57:00,48.8,22.3,30.29,ENE,71,6.0,6.0,35,0.00,,,0.00,Wunderground v.1.13,2013-04-04 02:57:00,
2013-04-03 23:02:00,48.7,22.2,30.29,East,84,7.0,7.0,35,0.00,,,0.00,Wunderground v.1.13,2013-04-04 03:02:00,
2013-04-03 23:07:00,48.6,22.1,30.29,East,80,7.0,7.0,35,0.00,,,0.00,Wunderground v.1.13,2013-04-04 03:07:00,
2013-04-03 23:13:00,48.5,21.4,30.29,ENE,78,8.0,9.0,34,0.00,,,0.00,Wunderground v.1.13,2013-04-04 03:13:00,
2013-04-03 23:18:00,48.4,22.0,30.29,East,86,7.0,8.0,35,0.00,,,0.00,Wunderground v.1.13,2013-04-04 03:18:00,
2013-04-03 23:23:00,48.2,21.8,30.29,ENE,73,7.0,10.0,35,0.00,,,0.00,Wunderground v.1.13,2013-04-04 03:23:00,
2013-04-03 23:28:00,48.1,22.4,30.29,ESE,104,6.0,7.0,36,0.00,,,0.00,Wunderground v.1.13,2013-04-04 03:28:00,
2013-04-03 23:34:00,47.9,21.5,30.28,ENE,70,6.0,9.0,35,0.00,,,0.00,Wunderground v.1.13,2013-04-04 03:34:00,
2013-04-03 23:40:00,47.8,22.1,30.28,East,91,7.0,7.0,36,0.00,,,0.00,Wunderground v.1.13,2013-04-04 03:40:00,
2013-04-03 23:45:00,47.7,22.0,30.28,ESE,107,7.0,7.0,36,0.00,,,0.00,Wunderground v.1.13,2013-04-04 03:45:00,
2013-04-03 23:51:00,47.6,21.9,30.28,East,99,6.0,6.0,36,0.00,,,0.00,Wunderground v.1.13,2013-04-04 03:51:00,
2013-04-03 23:56:00,47.5,21.8,30.28,East,86,6.0,8.0,36,0.00,,,0.00,Wunderground v.1.13,2013-04-04 03:56:00,